Historical Weather Data

Soule Park Golf Course
1033 East Ojai Ave
Ojai, CA 93023
Date ET
(Inches)
Rain
(Inches)
Temp °F
Humidity
Avg
Wind MPH
Avg
Solar Wm2
Avg
High Ave Low
1/1/17 0.05 0.00 61.1 46.0 33.3 82 1.9 94
1/2/17 0.02 0.00 53.8 47.6 42.5 85 1.1 36
1/3/17 0.04 1.27 57.7 47.2 39.5 83 1.3 69
1/4/17 0.02 0.41 54.3 49.4 42.2 95 0.5 43
1/5/17 0.03 0.17 63.2 54.2 43.4 94 0.6 67
1/6/17 0.05 0.00 65.8 49.2 38.1 77 1.1 102
1/7/17 0.01 0.56 58.7 52.1 46.8 94 0.8 28
1/8/17 0.05 0.05 73.1 57.8 47.8 76 1.3 79
1/9/17 0.03 0.88 62.3 53.9 48.9 93 1.7 65
1/10/17 0.03 0.36 61.6 51.6 42.9 93 1.6 69
1/11/17 0.05 0.42 61.6 55.2 50.6 88 2.0 96
1/12/17 0.02 0.40 56.5 49.6 39.7 95 0.7 49
1/13/17 0.05 0.00 62.5 45.9 33.9 82 1.6 88
1/14/17 0.06 0.00 72.1 51.2 37.5 71 2.2 118
1/15/17 0.05 0.00 65.5 49.4 35.0 78 2.1 111
1/16/17 0.05 0.00 66.9 52.2 39.9 79 2.0 111
1/17/17 0.06 0.00 69.0 48.9 35.7 69 2.3 116
1/18/17 0.04 0.12 58.8 46.8 34.1 84 2.0 82
1/19/17 0.05 0.80 60.5 51.4 45.6 89 2.5 114
1/20/17 0.02 2.07 59.5 49.2 43.5 93 2.3 63
1/21/17 0.06 0.00 60.5 48.4 37.9 86 2.3 122
1/22/17 0.01 2.75 55.1 50.2 46.4 99 2.1 12
1/23/17 0.06 0.65 58.4 49.2 40.2 88 2.3 124
1/24/17 0.00 0.00 59.7 51.9 39.3 82 2.1 3
1/25/17 32.0 32.0 32.0 0.0
1/26/17 32.0 32.0 32.0 0.0
1/27/17 32.0 32.0 32.0 0.0
1/28/17 32.0 32.0 32.0 0.0
1/29/17 32.0 32.0 32.0 0.0
1/30/17 32.0 32.0 32.0 0.0
1/31/17 32.0 32.0 32.0 0.0
2/1/17 32.0 32.0 32.0 0.0
2/2/17 32.0 32.0 32.0 0.0
2/3/17 32.0 32.0 32.0 0.0
2/4/17 32.0 32.0 32.0 0.0
2/5/17 32.0 32.0 32.0 0.0
2/6/17 32.0 32.0 32.0 0.0
2/7/17 0.03 0.04 64.4 59.4 56.9 94 1.0 93
2/8/17 0.07 0.01 69.0 60.6 55.3 92 1.0 122
2/9/17 0.09 0.00 76.6 60.5 50.7 85 1.5 159
2/10/17 0.02 0.44 60.0 56.3 53.2 97 0.9 30
2/11/17 0.10 0.05 65.6 56.2 48.3 84 2.1 184
2/12/17 0.12 0.00 73.5 56.1 44.0 64 2.6 206
2/13/17 0.11 0.00 76.9 57.2 40.6 62 2.3 180
2/14/17 0.12 0.00 73.2 57.6 44.9 71 2.6 206
2/15/17 0.13 0.00 81.2 58.2 42.7 56 2.5 205
2/16/17 0.06 0.12 66.9 54.2 41.6 74 2.1 101
2/17/17 0.01 5.30 56.8 52.8 49.7 92 4.9 5
2/18/17 0.07 0.10 62.3 52.6 45.5 89 2.0 140
2/19/17 0.06 0.22 62.1 51.5 44.4 89 1.6 112
2/20/17 0.04 0.28 58.7 53.6 50.2 97 0.5 66
2/21/17 0.03 0.11 59.3 54.9 50.8 96 0.1 59
2/22/17 0.12 0.01 65.8 51.4 39.5 71 2.2 230
2/23/17 0.12 0.00 62.2 45.4 33.4 58 2.6 233
2/24/17 0.11 0.00 62.1 44.8 30.1 62 2.6 229
2/25/17 0.08 0.00 59.1 44.7 31.0 76 2.5 161
2/26/17 0.06 0.18 58.1 47.8 41.4 85 2.1 116
2/27/17 0.06 0.00 57.8 49.3 39.2 81 2.1 98
2/28/17 0.12 0.00 62.2 47.9 34.4 69 2.8 235
3/1/17 0.15 0.00 73.6 52.3 34.2 58 2.7 242
3/2/17 0.14 0.00 79.1 55.2 35.1 51 2.5 220
3/3/17 0.16 0.00 80.0 56.6 35.6 46 2.7 239
3/4/17 0.11 0.00 70.5 53.0 39.0 67 2.3 188
3/5/17 0.07 0.16 60.2 48.0 36.1 77 3.0 132
3/6/17 0.13 0.00 61.7 46.5 31.8 61 2.7 252
3/7/17 0.14 0.00 76.2 54.0 34.3 59 2.3 234
3/8/17 0.17 0.00 83.3 61.6 42.1 55 2.5 247
3/9/17 0.18 0.00 86.4 64.4 45.3 55 2.7 255
3/10/17 0.13 0.00 81.7 63.1 47.3 62 2.3 195
3/11/17 0.18 0.00 85.3 65.1 45.8 57 2.8 255
3/12/17 0.19 0.00 88.9 67.8 48.4 46 2.8 259
3/13/17 0.19 0.00 91.2 68.3 48.4 50 2.5 262
3/14/17 0.17 0.00 88.5 66.4 46.6 51 2.3 245
3/15/17 0.19 0.00 86.3 66.6 49.9 52 2.8 258
3/16/17 0.17 0.00 81.7 63.4 46.3 62 2.5 258
3/17/17 0.16 0.00 83.0 63.2 47.1 64 2.2 240
3/18/17 0.15 0.00 79.6 59.5 45.0 76 2.5 249
3/19/17 0.15 0.00 80.3 58.4 41.4 72 2.5 247
3/20/17 0.11 0.00 68.3 57.3 50.6 77 2.8 201
3/21/17 0.03 0.69 59.8 55.8 51.7 95 1.3 62
3/22/17 0.13 0.04 66.1 57.0 44.8 80 3.2 241
3/23/17 0.16 0.00 68.0 54.5 42.0 66 3.1 280
3/24/17 0.14 0.01 67.5 54.1 39.9 77 2.8 263
3/25/17 0.13 0.00 67.4 56.3 47.2 83 3.0 249
3/26/17 0.13 0.00 68.9 55.6 42.1 77 2.6 240
3/27/17 0.19 0.00 74.2 58.1 44.0 56 3.5 291
3/28/17 0.19 0.00 77.0 60.6 43.8 47 3.1 283
3/29/17 0.21 0.00 83.4 64.0 44.0 46 3.1 288
3/30/17 0.19 0.00 78.2 61.8 46.2 48 4.1 298
3/31/17 0.20 0.00 71.3 60.4 48.4 33 4.0 295
4/1/17 0.19 0.00 79.6 60.5 41.3 51 2.8 294
4/2/17 0.18 0.00 76.8 60.2 44.9 63 2.8 289
4/3/17 0.12 0.00 66.8 54.1 46.3 85 2.8 248
4/4/17 0.16 0.00 75.8 59.4 47.5 74 2.6 289
4/5/17 0.19 0.00 84.8 64.0 45.7 57 2.7 280
4/6/17 0.14 0.00 80.0 59.6 45.7 63 2.3 205
4/7/17 0.14 0.20 74.3 56.0 41.2 68 2.5 240
4/8/17 0.17 0.01 67.5 57.4 45.8 69 3.6 300
4/9/17 0.16 0.00 70.4 54.1 39.9 55 3.1 268
4/10/17 0.20 0.00 76.9 58.3 38.8 48 2.9 307
4/11/17 0.15 0.00 73.0 56.7 40.8 64 2.9 250
4/12/17 0.18 0.00 72.8 58.2 43.2 74 3.5 309
4/13/17 0.14 0.00 67.7 57.5 46.7 76 3.3 254
4/14/17 0.19 0.00 71.3 56.5 42.0 55 2.9 320
4/15/17 0.21 0.00 79.0 59.6 39.5 52 3.0 321
4/16/17 0.20 0.00 77.4 59.6 42.9 59 2.9 307
4/17/17 0.10 0.00 73.6 59.1 47.7 77 2.4 165
4/18/17 0.10 0.11 72.0 61.4 55.1 86 2.5 175
4/19/17 0.20 0.00 76.4 63.8 48.5 68 3.0 324
4/20/17 0.23 0.00 83.0 64.5 45.5 49 3.1 333
4/21/17 0.25 0.00 91.5 69.3 47.6 39 3.1 330
4/22/17 0.25 0.00 90.0 70.6 51.3 45 3.2 326
4/23/17 0.21 0.00 78.4 64.5 49.9 66 3.2 321
4/24/17 0.20 0.00 75.9 63.0 46.2 60 3.4 303
4/25/17 0.19 0.00 76.8 64.4 49.0 47 3.4 286
4/26/17 0.21 0.00 89.4 71.0 52.6 44 3.4 278
4/27/17 0.23 0.00 87.1 70.5 54.3 43 3.4 308
4/28/17 0.25 0.00 84.0 68.8 51.1 30 3.7 341
4/29/17 0.26 0.00 81.1 66.4 47.5 28 3.6 355
4/30/17 0.26 0.00 85.1 67.0 45.8 37 3.0 354
5/1/17 0.25 0.00 86.9 68.1 47.8 45 3.1 347
5/2/17 0.25 0.00 88.1 69.5 49.5 54 2.8 342
5/3/17 0.24 0.00 90.5 70.1 51.6 61 2.7 334
5/4/17 0.24 0.00 88.3 67.4 50.1 68 2.9 343
5/5/17 0.16 0.00 75.1 60.1 53.2 83 3.1 276
5/6/17 0.06 0.07 64.3 55.1 48.6 82 2.6 104
5/7/17 0.10 0.11 63.9 51.5 45.5 79 2.2 191
5/8/17 0.22 0.00 77.2 59.1 40.6 68 3.1 346
5/9/17 0.14 0.00 73.6 58.0 46.3 82 2.9 231
5/10/17 0.05 0.00 65.6 59.8 56.8 78 1.8 57
5/11/17 0.21 0.00 74.7 62.3 49.7 74 2.6 346
5/12/17 0.21 0.00 75.8 61.7 46.8 70 3.0 350
5/13/17 0.23 0.00 76.6 61.3 44.0 48 3.1 366
5/14/17 0.19 0.00 69.6 57.3 42.2 60 3.3 317
5/15/17 0.10 0.00 67.1 55.5 47.1 72 2.8 181
5/16/17 0.19 0.00 70.0 55.9 39.9 71 2.9 346
5/17/17 0.21 0.00 74.4 60.1 44.1 64 3.0 353
5/18/17 0.25 0.00 80.7 64.3 44.9 53 3.3 362
5/19/17 0.27 0.00 87.7 68.6 48.0 39 3.3 366
5/20/17 0.29 0.00 92.7 73.2 50.9 36 3.4 366
5/21/17 0.28 0.00 92.3 74.6 55.1 41 3.0 362
5/22/17 0.27 0.00 91.8 71.7 51.2 53 2.5 364
5/23/17 0.26 0.00 91.5 69.3 50.0 59 2.6 364
5/24/17 0.21 0.00 83.0 62.4 49.5 72 3.2 333
5/25/17 0.07 0.01 64.7 58.0 53.5 80 2.6 106
5/26/17 0.11 0.00 69.3 60.4 53.0 71 2.7 152
5/27/17 0.22 0.00 73.2 60.1 44.4 71 3.0 358
5/28/17 0.24 0.00 82.5 64.7 46.7 66 2.8 362
5/29/17 0.22 0.00 81.5 63.5 49.0 72 2.8 349
5/30/17 0.19 0.00 77.8 61.1 50.6 80 2.9 315
5/31/17 0.14 0.00 75.0 62.2 53.8 79 2.8 234
6/1/17 0.20 0.00 79.1 64.7 53.1 73 2.8 321
6/2/17 0.24 0.00 87.1 69.1 51.0 66 2.6 356
6/3/17 0.24 0.00 88.0 69.3 52.8 69 2.8 349
6/4/17 0.22 0.00 85.7 67.4 54.2 73 2.8 345
6/5/17 0.21 0.00 81.8 65.1 53.8 78 2.9 332
6/6/17 0.18 0.00 77.2 63.3 56.1 83 3.4 308
6/7/17 0.16 0.00 76.4 64.2 58.4 80 3.3 272
6/8/17 0.11 0.00 69.3 62.4 54.2 82 2.7 185
6/9/17 0.21 0.00 77.1 64.0 50.5 77 3.2 352
6/10/17 0.05 0.00 66.5 61.4 53.8 85 2.0 75
6/11/17 0.11 0.00 69.8 60.3 50.4 73 2.2 156
6/12/17 0.24 0.00 76.4 61.4 42.1 57 3.0 371
6/13/17 0.26 0.00 85.7 66.6 44.4 49 3.0 371
6/14/17 0.27 0.00 89.4 71.9 49.2 48 2.6 369
6/15/17 0.27 0.00 92.6 73.9 52.2 48 2.3 366
6/16/17 0.29 0.00 95.3 75.7 54.0 47 2.9 371
6/17/17 0.27 0.00 95.1 75.1 54.2 52 2.7 358
6/18/17 0.27 0.00 93.4 75.4 56.2 56 2.5 358
6/19/17 0.27 0.00 96.9 76.3 57.3 58 2.6 361
6/20/17 0.27 0.00 99.4 78.5 57.1 56 2.5 356
6/21/17 0.27 0.00 99.7 79.4 60.5 54 2.1 351
6/22/17 0.24 0.00 85.5 71.2 58.1 70 2.8 351
6/23/17 0.22 0.00 85.1 69.0 58.4 75 2.9 335
6/24/17 0.21 0.00 90.2 72.0 57.7 67 2.8 291
6/25/17 0.29 0.00 104.4 80.0 57.0 52 2.7 361
6/26/17 0.31 0.00 100.5 79.3 57.4 41 3.2 371
6/27/17 0.28 0.00 92.4 74.0 52.8 47 2.5 370
6/28/17 0.25 0.00 86.5 69.2 51.8 62 2.7 363
6/29/17 0.22 0.00 80.3 66.3 51.9 71 2.6 354
6/30/17 0.22 0.00 81.7 66.5 51.6 72 2.5 342
7/1/17 0.20 0.00 80.9 64.9 52.1 77 2.4 322
7/2/17 0.22 0.00 84.4 67.5 54.7 73 2.7 335
7/3/17 0.25 0.00 93.0 69.8 50.4 61 2.4 364
7/4/17 0.26 0.00 96.4 73.5 52.9 50 2.4 353
7/5/17 0.25 0.00 92.3 75.8 58.4 51 2.6 339
7/6/17 0.26 0.00 98.9 78.1 58.4 55 2.3 338
7/7/17 0.28 0.00 104.5 83.8 63.5 48 2.7 340
7/8/17 0.29 0.00 105.9 84.3 64.3 45 2.9 341
7/9/17 0.25 0.00 98.4 82.0 68.1 49 2.9 306
7/10/17 0.22 0.00 94.8 79.6 68.1 50 2.5 280
7/11/17 0.24 0.00 91.8 75.9 60.5 58 2.6 325
7/12/17 0.22 0.00 88.1 73.3 60.0 66 2.7 311
7/13/17 0.24 0.00 91.5 73.1 58.3 65 2.9 328
7/14/17 0.24 0.00 90.8 73.3 57.7 64 2.5 329
7/15/17 0.25 0.00 96.2 76.4 58.9 58 2.6 327
7/16/17 0.24 0.00 92.6 76.9 62.8 61 2.7 320
7/17/17 0.23 0.00 90.1 74.3 60.1 69 2.6 320
7/18/17 0.24 0.00 89.9 74.1 59.3 66 2.8 326
7/19/17 0.24 0.00 92.5 74.3 57.4 60 2.7 323
7/20/17 0.25 0.00 90.2 73.4 55.9 59 2.8 339
7/21/17 0.25 0.00 88.2 72.2 54.9 62 2.9 348
7/22/17 0.26 0.00 95.2 74.4 54.8 57 2.6 351
7/23/17 0.25 0.00 91.5 73.5 57.1 62 2.8 334
7/24/17 0.19 0.00 89.4 71.9 59.3 66 2.7 271
7/25/17 0.24 0.00 87.0 72.6 60.2 66 3.1 333
7/26/17 0.25 0.00 92.6 74.8 59.5 62 2.8 338
7/27/17 0.26 0.00 94.5 76.1 58.3 61 2.8 341
7/28/17 0.25 0.00 92.7 72.9 56.9 68 2.8 345
7/29/17 0.24 0.00 93.3 73.6 60.8 68 3.2 331
7/30/17 0.23 0.00 89.7 70.8 59.6 73 2.9 331
7/31/17 0.24 0.00 94.4 72.9 55.2 66 2.4 333
8/1/17 0.16 0.00 99.0 77.4 61.4 59 2.5 189
8/2/17 0.18 0.00 100.0 82.2 70.1 54 2.3 204
8/3/17 0.20 0.00 96.3 80.3 68.1 58 2.3 243
8/4/17 0.24 0.00 92.1 77.9 64.7 60 2.7 316
8/5/17 0.22 0.00 87.9 73.3 60.6 69 2.8 314
8/6/17 0.22 0.00 86.5 72.3 59.3 70 2.6 320
8/7/17 0.23 0.00 90.6 73.0 56.8 68 2.3 325
8/8/17 0.24 0.00 93.1 75.3 59.1 63 2.5 319
8/9/17 0.23 0.00 92.2 74.5 58.2 62 2.5 319
8/10/17 0.24 0.00 93.5 75.3 57.9 60 2.6 323
8/11/17 0.25 0.00 96.6 75.8 56.8 59 2.6 326
8/12/17 0.24 0.00 93.3 72.9 55.1 63 2.6 324
8/13/17 0.22 0.00 90.8 71.0 57.4 68 2.7 311
8/14/17 0.19 0.00 79.4 65.9 56.1 79 2.7 296
8/15/17 0.10 0.00 76.5 65.6 57.9 78 2.2 155
8/16/17 0.16 0.00 78.8 65.3 53.5 74 2.2 237
8/17/17 0.21 0.00 85.1 69.0 53.7 68 2.6 301
8/18/17 0.22 0.00 87.5 70.5 54.7 66 2.5 304
8/19/17 0.20 0.00 86.0 69.7 56.5 70 2.6 296
8/20/17 0.19 0.00 82.4 67.7 58.4 76 2.7 287
8/21/17 0.18 0.00 84.5 68.6 58.7 72 2.4 271
8/22/17 0.22 0.00 92.7 70.9 51.9 64 2.2 306
8/23/17 0.19 0.00 83.6 67.4 55.0 76 2.5 302
8/24/17 0.18 0.00 86.0 68.2 57.7 76 2.7 269
8/25/17 0.18 0.00 87.2 69.3 58.0 77 2.5 278
8/26/17 0.22 0.00 97.9 75.7 59.3 66 2.1 295
8/27/17 0.24 0.00 100.7 78.3 56.2 51 2.4 299
8/28/17 0.24 0.00 104.8 80.9 60.9 46 2.5 291
8/29/17 0.24 0.00 107.3 85.4 64.6 43 2.4 288
8/30/17 0.24 0.00 109.0 85.6 65.8 44 2.3 279
8/31/17 0.24 0.00 108.5 89.5 71.6 35 2.9 256
9/1/17 0.24 0.00 107.2 88.0 69.1 37 2.6 276
9/2/17 0.24 0.00 108.0 89.6 74.3 37 2.6 271
9/3/17 0.17 0.00 101.8 83.8 72.3 52 2.7 173
9/4/17 0.15 0.03 83.3 74.5 67.7 78 2.6 216
9/5/17 0.18 0.00 92.8 74.2 62.9 73 2.2 254
9/6/17 0.20 0.00 93.1 73.7 59.4 65 2.2 272
9/7/17 0.20 0.00 94.4 73.6 56.2 62 2.3 265
9/8/17 0.19 0.00 86.3 70.2 57.4 70 2.3 271
9/9/17 0.18 0.00 88.6 68.2 51.4 70 2.3 266
9/10/17 0.19 0.00 98.8 75.5 56.3 56 2.3 237
9/11/17 0.18 0.00 94.6 78.5 66.9 58 2.6 232
9/12/17 0.19 0.00 88.9 73.1 61.1 68 2.4 264
9/13/17 0.14 0.00 80.0 66.0 58.4 76 2.6 221
9/14/17 0.05 0.00 69.3 63.5 57.1 80 2.1 66
9/15/17 0.17 0.00 77.1 65.6 54.2 75 2.2 262
9/16/17 0.16 0.00 79.0 64.4 51.3 75 2.3 256
9/17/17 0.08 0.00 76.1 62.8 52.8 81 1.5 135
9/18/17 0.16 0.00 79.9 64.9 51.1 77 2.1 254
9/19/17 0.09 0.00 77.0 63.6 55.8 82 1.7 152
9/20/17 0.09 0.00 74.7 62.6 50.5 79 1.8 136
9/21/17 0.14 0.00 75.0 63.7 51.9 70 2.5 227
9/22/17 0.15 0.00 72.6 58.9 43.7 61 2.5 252
9/23/17 0.16 0.00 78.1 60.4 43.2 55 2.5 251
9/24/17 0.19 0.00 84.4 65.1 46.7 40 2.6 255
9/25/17 0.20 0.00 87.9 68.0 49.1 33 3.1 255
9/26/17 0.19 0.00 90.4 69.2 50.3 35 2.7 250
9/27/17 0.19 0.00 93.5 70.5 50.8 38 2.5 251
9/28/17 0.20 0.00 95.3 72.7 52.3 37 2.6 249
9/29/17 0.19 0.00 93.1 72.6 55.4 36 2.6 244
9/30/17 0.16 0.00 84.5 67.0 51.8 54 2.1 234
10/1/17 0.14 0.00 78.4 62.2 47.8 76 2.2 234
10/2/17 0.15 0.00 78.1 63.6 53.0 73 2.2 236
10/3/17 0.12 0.00 75.0 59.8 47.8 75 2.3 196
10/4/17 0.16 0.00 83.3 62.9 44.3 54 2.0 244
10/5/17 0.18 0.00 87.7 65.6 44.9 42 2.4 243
10/6/17 0.18 0.00 94.2 70.0 47.7 35 2.3 241
10/7/17 0.19 0.00 95.5 71.0 49.7 29 2.7 242
10/8/17 0.15 0.00 81.2 63.4 45.9 57 2.2 233
10/9/17 0.18 0.00 86.2 66.6 50.3 49 2.9 237
10/10/17 0.17 0.00 87.6 64.8 45.0 31 2.3 233
10/11/17 0.15 0.00 82.0 61.7 42.6 53 2.1 229
10/12/17 0.13 0.00 79.4 60.7 43.7 68 1.6 216
10/13/17 0.15 0.00 82.2 62.4 42.7 55 2.1 221
10/14/17 0.16 0.00 91.0 65.3 42.0 37 2.2 223
10/15/17 0.17 0.00 94.4 69.7 49.1 27 2.4 226
10/16/17 0.17 0.00 97.4 71.8 50.3 26 2.2 223
10/17/17 0.16 0.00 96.2 73.1 55.0 34 2.1 204
10/18/17 0.15 0.00 90.6 71.8 57.1 45 2.1 205
10/19/17 0.13 0.00 80.6 63.5 48.1 66 2.1 205
10/20/17 0.13 0.00 78.9 62.1 48.9 60 2.2 210
10/21/17 0.14 0.00 82.0 61.7 44.0 43 2.1 214
10/22/17 0.15 0.00 96.9 69.2 48.6 35 2.0 213
10/23/17 0.20 0.00 102.8 75.7 53.2 30 3.5 214
10/24/17 0.18 0.00 102.5 78.8 61.2 28 2.5 210
10/25/17 0.17 0.00 99.6 74.8 55.3 30 2.3 210
10/26/17 0.16 0.00 94.3 70.6 51.0 35 2.2 208
10/27/17 0.15 0.00 95.1 68.7 47.1 42 1.8 207
10/28/17 0.15 0.00 92.6 65.5 47.1 52 2.0 205
10/29/17 0.08 0.00 74.3 57.1 45.2 84 1.8 160
10/30/17 0.05 0.00 70.2 61.9 58.0 77 1.7 74
10/31/17 0.05 0.00 68.6 61.4 56.1 77 1.4 67
11/1/17 0.06 0.00 70.3 61.1 53.2 73 1.4 80
11/2/17 0.04 0.00 68.0 59.4 54.4 73 1.3 56
11/3/17 0.10 0.00 70.2 59.6 51.9 70 2.0 155
11/4/17 0.09 0.00 72.5 58.1 45.5 75 2.2 163
11/5/17 0.08 0.00 71.4 59.6 50.1 79 1.8 143
11/6/17 0.07 0.00 69.6 58.3 49.8 70 2.1 116
11/7/17 0.10 0.00 76.0 59.3 45.7 66 2.3 155
11/8/17 0.09 0.00 75.5 59.2 45.4 75 2.3 151
11/9/17 0.08 0.00 70.4 58.0 45.8 83 2.4 153
11/10/17 0.07 0.00 70.6 56.4 44.0 82 2.0 145
11/11/17 0.08 0.00 73.1 56.1 42.1 76 1.8 141
11/12/17 0.05 0.00 74.1 55.7 44.4 74 1.5 89
11/13/17 0.07 0.00 76.9 55.8 40.9 65 1.1 114
11/14/17 0.10 0.00 80.9 59.5 44.3 59 2.3 133
11/15/17 0.08 0.00 82.4 61.0 45.0 49 2.0 109
11/16/17 0.06 0.03 75.1 62.1 53.4 73 1.5 74
11/17/17 0.07 0.00 74.1 60.5 49.5 81 1.7 107
11/18/17 0.07 0.00 81.4 56.2 40.9 63 1.8 115
11/19/17 0.09 0.00 78.1 54.5 37.5 51 2.0 126
11/20/17 0.08 0.00 79.9 58.4 40.7 48 2.1 107